x

9087069 - Kewaunee, Wi (kwnw3) Weather Station

12:18pm - Sun 21st Dec 2014 All times are CST. -6 hours from GMT.

  • Wind
    16mph, 22mph gusts
  • Air Temp 36°f
  • Sea Pressure 1017.7mb
  • 9087069 - Kewaunee, Wi
  • 9087069 - Kewaunee, Wi

More Historic Weather Station data

Upgrade to MSW Pro to gain access to the past 30 days of data for over 8000 Wavebouys and Weather Stations around the globe.

Join Pro

Comparision Forecast

View Surf forecast
   
Sun 12/21 12:18pm 16 22 mph 1017.7mb 36f
12:12pm 17 21 mph 1017.8mb 37f
12:06pm 18 22 mph 1018mb 37f
12:00pm 16 20 mph 1018.1mb 36f
11:54am 16 18 mph 1018.2mb 36f
11:48am 14 20 mph 1018.3mb 36f
11:42am 15 20 mph 1018.4mb 36f
11:36am 15 20 mph 1018.4mb 36f
11:30am 15 18 mph 1018.5mb 36f
11:24am 15 21 mph 1018.6mb 36f
11:12am 15 18 mph 1018.8mb 36f
11:06am 14 17 mph 1018.9mb 36f
11:00am 13 15 mph 1019mb 36f
10:54am 13 16 mph 1019.1mb 36f
10:48am 14 16 mph 1019.1mb 36f
10:42am 14 16 mph 1019.3mb 36f
10:36am 14 15 mph 1019.3mb 35f
10:30am 13 15 mph 1019.4mb 36f
10:24am 13 14 mph 1019.5mb 36f
10:18am 13 15 mph 1019.7mb 36f
10:12am 13 16 mph 1019.7mb 35f
10:00am 14 15 mph 1019.6mb 35f
9:54am 13 15 mph 1019.6mb 35f
9:48am 13 15 mph 1019.6mb 35f
9:42am 13 16 mph 1019.6mb 35f
9:36am 13 15 mph 1019.6mb 35f
9:30am 13 14 mph 1019.6mb 35f
9:24am 13 14 mph 1019.7mb 35f
9:18am 13 16 mph 1019.7mb 35f
9:12am 13 15 mph 1019.8mb 35f
9:06am 11 14 mph 1019.8mb 34f
9:00am 10 13 mph 1019.8mb 34f
8:54am 11 14 mph 1019.8mb 34f
8:48am 10 13 mph 1019.8mb 34f
8:36am 9 11 mph 1019.9mb 34f
8:30am 9 11 mph 1019.9mb 34f
8:24am 8 10 mph 1019.9mb 34f
8:18am 8 10 mph 1019.9mb 34f
8:12am 9 11 mph 1019.9mb 34f
8:06am 10 13 mph 1020mb 34f
8:00am 10 14 mph 1020.1mb 34f
7:54am 9 11 mph 1020.1mb 34f
7:48am 10 13 mph 1020.2mb 33f
7:42am 9 11 mph 1020.3mb 33f
7:36am 10 13 mph 1020.4mb 33f
7:30am 8 11 mph 1020.4mb 33f
7:24am 9 11 mph 1020.4mb 32f
7:18am 9 11 mph 1020.4mb 32f
7:12am 9 11 mph 1020.4mb 32f
7:06am 10 11 mph 1020.5mb 32f
7:00am 10 11 mph 1020.5mb 32f
6:54am 9 11 mph 1020.6mb 32f
6:48am 9 11 mph 1020.7mb 32f
6:42am 9 10 mph 1020.7mb 32f
6:36am 9 11 mph 1020.8mb 32f
6:30am 9 11 mph 1020.9mb 32f
6:24am 8 11 mph 1020.8mb 32f
6:18am 8 9 mph 1020.8mb 32f
6:12am 7 9 mph 1020.8mb 32f
6:06am 8 10 mph 1020.7mb 32f
6:00am 8 9 mph 1020.6mb 32f
5:54am 7 9 mph 1020.6mb 32f
5:48am 6 8 mph 1020.7mb 32f
5:42am 6 8 mph 1020.7mb 32f
5:30am 6 8 mph 1020.7mb 32f
5:24am 6 8 mph 1020.7mb 32f
5:18am 5 8 mph 1020.7mb 32f
5:12am 6 8 mph 1020.7mb 32f
5:06am 6 8 mph 1020.7mb 32f
5:00am 6 8 mph 1020.7mb 32f
4:54am 6 8 mph 1020.7mb 32f
4:48am 6 8 mph 1020.7mb 32f
4:42am 6 8 mph 1020.7mb 32f
4:36am 6 8 mph 1020.7mb 31f
4:30am 6 7 mph 1020.9mb 31f
4:24am 7 8 mph 1020.9mb 31f
4:18am 5 7 mph 1021mb 31f
4:12am 6 7 mph 1021.1mb 31f
4:06am 5 7 mph 1021.3mb 31f
4:00am 6 8 mph 1021.4mb 31f
3:54am 6 7 mph 1021.4mb 31f
3:48am 5 8 mph 1021.5mb 31f
3:36am 3 6 mph 1021.6mb 31f
3:30am 3 7 mph 1021.6mb 31f
3:24am 5 7 mph 1021.7mb 31f
3:18am 6 8 mph 1021.7mb 31f
3:12am 5 7 mph 1021.8mb 31f
3:06am 5 6 mph 1021.9mb 31f
3:00am 3 6 mph 1021.9mb 31f
2:54am 5 7 mph 1022mb 31f
2:48am 5 7 mph 1022mb 31f
2:42am 3 5 mph 1022mb 31f
2:36am 1 6 mph 1022.1mb 31f
2:30am 2 5 mph 1022.1mb 31f
2:24am 1 3 mph 1022.1mb 31f
2:18am 2 5 mph 1022.2mb 31f
2:12am 2 6 mph 1022.3mb 31f
2:06am 3 6 mph 1022.3mb 31f
2:00am 2 6 mph 1022.2mb 31f
1:54am 3 6 mph 1022.2mb 31f
1:48am 5 7 mph 1022.1mb 31f
1:42am 2 6 mph 1022.1mb 31f
1:36am 1 5 mph 1022mb 31f
1:30am 2 6 mph 1022mb 31f
1:24am 3 6 mph 1022mb 31f
1:18am 1 3 mph 1021.9mb 31f
1:12am 2 5 mph 1021.9mb 31f
1:06am 2 5 mph 1021.9mb 30f
1:00am 1 5 mph 1022mb 30f
12:54am 1 3 mph 1022mb 30f
12:48am 2 3 mph 1021.9mb 30f
12:42am  -  1 mph 1021.9mb 30f
12:36am  -  1 mph 1021.9mb 30f
12:30am  -  1 mph 1021.9mb 30f
12:24am  -  mph 1022mb 29f
12:18am  -  mph 1022mb 29f
12:12am  -  mph 1022mb 29f
12:06am  -  mph 1022.1mb 29f
12:00am  -  mph 1022.1mb 29f
Sat 12/20 11:54pm  -  mph 1022.2mb 29f
11:48pm  -  1 mph 1022.1mb 29f
11:42pm  -  mph 1022.1mb 29f
11:36pm  -  mph 1022.1mb 29f
11:30pm  -  1 mph 1022.1mb 29f
11:24pm  -  1 mph 1022.1mb 29f
11:18pm  -  3 mph 1022.1mb 29f
11:12pm  -  3 mph 1022.2mb 29f
11:06pm 1 3 mph 1022.3mb 29f
11:00pm 1 3 mph 1022.3mb 29f
10:54pm 1 3 mph 1022.4mb 29f
10:48pm 1 5 mph 1022.4mb 29f
10:42pm 2 5 mph 1022.4mb 29f
10:36pm 1 5 mph 1022.4mb 28f
10:30pm 2 3 mph 1022.3mb 28f
10:24pm 2 5 mph 1022.2mb 28f
10:18pm  -  3 mph 1022.2mb 28f
10:12pm 1 5 mph 1022.2mb 28f
10:06pm 2 5 mph 1022.2mb 28f
10:00pm 2 6 mph 1022.4mb 28f
9:54pm 3 6 mph 1022.4mb 28f
9:48pm 2 5 mph 1022.4mb 27f
9:42pm  -  3 mph 1022.5mb 28f
9:36pm 1 3 mph 1022.5mb 28f
9:30pm  -  3 mph 1022.5mb 28f
9:24pm 1 3 mph 1022.6mb 28f
9:18pm 2 5 mph 1022.6mb 27f
9:12pm 3 6 mph 1022.6mb 27f
9:06pm 2 3 mph 1022.6mb 26f
9:00pm 1 6 mph 1022.6mb 26f
8:54pm 2 5 mph 1022.7mb 26f
8:48pm 1 3 mph 1022.6mb 25f
8:42pm 1 3 mph 1022.6mb 25f
8:36pm  -  1 mph 1022.7mb 25f
8:30pm 1 3 mph 1022.7mb 24f
8:24pm 2 3 mph 1022.8mb 25f
8:18pm 2 5 mph 1022.8mb 26f
8:12pm 3 5 mph 1022.8mb 26f
8:06pm 1 3 mph 1022.7mb 27f
8:00pm 1 3 mph 1022.7mb 28f
7:54pm 1 3 mph 1022.8mb 28f
7:48pm 1 3 mph 1022.9mb 27f
7:42pm 2 3 mph 1022.9mb 27f
7:36pm 2 3 mph 1023mb 27f
7:30pm 2 3 mph 1023mb 26f
7:24pm 2 3 mph 1023mb 26f
7:18pm 1 3 mph 1023mb 26f
7:12pm 1 3 mph 1023mb 27f
7:06pm  -  3 mph 1023mb 26f
7:00pm 2 3 mph 1023mb 26f
6:54pm 2 3 mph 1023mb 27f
6:48pm 2 3 mph 1022.9mb 27f
6:42pm 1 3 mph 1022.9mb 27f
6:36pm 2 3 mph 1022.9mb 27f
6:30pm  -  3 mph 1022.8mb 27f
6:24pm 1 3 mph 1022.8mb 28f
6:18pm 1 3 mph 1022.8mb 28f
6:12pm  -  1 mph 1022.7mb 28f
6:06pm  -  2 mph 1022.8mb 28f
6:00pm  -  2 mph 1022.8mb 28f
5:54pm 1 2 mph 1022.8mb 28f
5:48pm  -  2 mph 1022.8mb 28f
5:42pm 1 2 mph 1022.9mb 28f
5:36pm  -  1 mph 1022.9mb 29f
5:30pm  -  1 mph 1022.9mb 30f
5:24pm  -  2 mph 1022.9mb 31f
5:18pm  -  1 mph 1022.9mb 30f
5:12pm  -  1 mph 1022.9mb 29f
5:06pm  -  mph 1023mb 29f
4:54pm  -  1 mph 1023mb 29f
4:48pm  -  1 mph 1023mb 29f
4:42pm  -  1 mph 1022.9mb 29f
4:36pm  -  1 mph 1023mb 30f
4:30pm  -  mph 1023mb 31f
4:24pm  -  mph 1023mb 31f
4:18pm  -  mph 1023mb 31f
4:06pm  -  mph 1022.9mb 31f
4:00pm  -  mph 1023mb 31f
3:54pm  -  mph 1023mb 31f
3:48pm  -  mph 1023mb 31f
3:42pm  -  mph 1023mb 31f
3:36pm  -  1 mph 1023mb 31f
3:30pm  -  1 mph 1023mb 32f
3:24pm  -  mph 1022.9mb 32f
3:18pm  -  2 mph 1022.9mb 32f
3:12pm  -  2 mph 1022.8mb 32f
3:06pm  -  2 mph 1022.7mb 32f
3:00pm  -  1 mph 1022.7mb 32f
2:54pm  -  2 mph 1022.7mb 32f
2:48pm  -  3 mph 1022.6mb 32f
2:42pm  -  3 mph 1022.6mb 32f
2:36pm 1 3 mph 1022.7mb 32f
2:30pm 1 3 mph 1022.6mb 32f
2:24pm 1 3 mph 1022.6mb 32f
2:18pm  -  3 mph 1022.6mb 34f
2:12pm  -  1 mph 1022.6mb 35f
2:06pm  -  1 mph 1022.6mb 34f
2:00pm  -  1 mph 1022.6mb 34f
1:54pm  -  1 mph 1022.5mb 33f
1:42pm 1 3 mph 1022.6mb 32f
1:36pm  -  3 mph 1022.6mb 32f
1:24pm 2 6 mph 1022.8mb 31f
1:18pm 2 6 mph 1022.8mb 31f
1:12pm 2 6 mph 1022.9mb 31f
1:06pm 3 6 mph 1023mb 31f
1:00pm 2 5 mph 1023mb 31f
12:54pm 1 5 mph 1023mb 31f
12:48pm 2 3 mph 1023mb 31f
12:42pm 2 5 mph 1023mb 31f
12:36pm 1 3 mph 1023.1mb 31f
12:30pm 2 5 mph 1023.2mb 31f
12:24pm 1 5 mph 1023.3mb 31f
12:18pm 2 6 mph 1023.3mb 31f
12:12pm 2 6 mph 1023.3mb 31f
12:06pm 2 6 mph 1023.4mb 31f
12:00pm 2 6 mph 1023.5mb 31f
11:54am 2 6 mph 1023.4mb 31f
11:48am 2 6 mph 1023.5mb 30f
11:42am 3 6 mph 1023.5mb 30f
11:36am 1 6 mph 1023.6mb 30f
11:30am 2 6 mph 1023.6mb 30f
11:24am 3 7 mph 1023.6mb 30f
11:18am 3 7 mph 1023.6mb 30f
11:06am 5 7 mph 1023.8mb 30f
11:00am 3 8 mph 1023.8mb 30f
10:54am 6 8 mph 1023.8mb 30f
10:48am 5 7 mph 1023.8mb 29f
10:42am 3 7 mph 1023.9mb 30f
10:36am 2 5 mph 1023.9mb 30f
10:30am  -  1 mph 1024mb 30f
10:24am  -  1 mph 1024mb 29f
10:18am  -  1 mph 1024mb 29f
10:12am  -  1 mph 1024.1mb 29f
10:06am  -  1 mph 1024.1mb 29f
10:00am  -  mph 1024.1mb 29f
9:54am  -  1 mph 1024.1mb 28f
9:48am  -  1 mph 1024mb 28f
9:42am  -  1 mph 1024.1mb 28f
9:36am  -  2 mph 1024mb 28f
9:30am  -  5 mph 1024mb 28f
9:24am 2 5 mph 1024mb 28f
9:18am 2 5 mph 1024mb 27f
9:12am 1 5 mph 1024mb 27f
9:06am 2 6 mph 1024mb 27f
9:00am 2 6 mph 1024mb 27f
8:54am 3 7 mph 1024mb 27f
8:48am 2 6 mph 1024mb 27f
8:42am 3 7 mph 1024mb 27f
8:36am 3 7 mph 1024mb 27f
8:30am 3 6 mph 1024mb 27f
8:24am 2 7 mph 1024mb 27f
8:18am 5 8 mph 1024.1mb 26f
8:12am 3 7 mph 1024.1mb 26f
8:06am 3 8 mph 1024mb 26f
8:00am 5 7 mph 1024mb 26f
7:54am 3 7 mph 1024mb 26f
7:48am 3 8 mph 1024mb 26f
7:42am 5 8 mph 1024.1mb 26f
7:36am 3 7 mph 1024.1mb 26f
7:30am 5 8 mph 1024.1mb 26f
7:24am 7 8 mph 1024.1mb 26f
7:18am 6 8 mph 1024.1mb 26f
7:12am 5 8 mph 1024.1mb 26f
7:06am 5 8 mph 1024.1mb 26f
7:00am 5 8 mph 1024.1mb 26f
6:54am 6 8 mph 1024.1mb 26f
6:48am 3 8 mph 1024.1mb 26f
6:42am 3 7 mph 1024.1mb 26f
6:36am 5 8 mph 1024.1mb 26f
6:30am 3 7 mph 1024.1mb 26f
6:24am 3 7 mph 1024.1mb 26f
6:18am 3 8 mph 1024.1mb 26f
6:12am 5 8 mph 1024.2mb 26f
6:06am 5 8 mph 1024.2mb 26f
6:00am 5 7 mph 1024.2mb 26f
5:54am 6 8 mph 1024.2mb 26f
5:48am 7 9 mph 1024.2mb 26f
5:42am 6 9 mph 1024.2mb 26f
5:36am 7 9 mph 1024.2mb 26f
5:30am 7 9 mph 1024.1mb 26f
5:24am 6 10 mph 1024.1mb 26f
5:18am 6 9 mph 1024.2mb 26f
5:12am 6 9 mph 1024.2mb 26f
5:06am 6 8 mph 1024.2mb 26f
5:00am 5 8 mph 1024.2mb 26f
4:54am 7 9 mph 1024.1mb 26f
4:48am 6 8 mph 1024.1mb 26f
4:42am 7 9 mph 1024mb 26f
4:36am 3 8 mph 1024mb 26f
4:30am 5 8 mph 1024mb 27f
4:24am 3 8 mph 1024mb 27f
4:18am 6 8 mph 1024mb 27f
4:12am 7 9 mph 1024mb 27f
4:06am 3 7 mph 1023.9mb 27f
4:00am 1 6 mph 1023.9mb 27f
3:54am 2 5 mph 1023.9mb 27f
3:48am 1 3 mph 1023.9mb 27f
3:42am  -  5 mph 1023.9mb 27f
3:36am 1 3 mph 1023.9mb 27f
3:30am  -  3 mph 1023.9mb 27f
3:24am 1 6 mph 1023.9mb 27f
3:18am 5 7 mph 1023.9mb 27f
3:12am 1 3 mph 1023.9mb 27f
3:06am 1 3 mph 1023.9mb 27f
3:00am 1 3 mph 1023.9mb 27f
2:54am 1 3 mph 1024mb 27f
2:48am 1 3 mph 1024mb 27f
2:42am 2 5 mph 1024mb 27f
2:36am 2 6 mph 1024mb 27f
2:30am 2 6 mph 1023.9mb 27f
2:24am 3 7 mph 1023.9mb 27f
2:18am 3 6 mph 1023.9mb 26f
2:12am 5 7 mph 1023.9mb 26f
2:06am 2 5 mph 1023.9mb 26f
2:00am 1 5 mph 1023.9mb 26f
1:54am 2 6 mph 1023.9mb 26f
1:48am 3 6 mph 1023.9mb 26f
1:42am 2 7 mph 1023.8mb 27f
1:36am 3 7 mph 1023.8mb 26f
1:30am 3 7 mph 1023.8mb 26f
1:24am 5 7 mph 1023.8mb 27f
1:18am 3 7 mph 1023.9mb 27f
1:12am 5 7 mph 1023.9mb 27f
1:06am 5 7 mph 1024mb 27f
1:00am 3 6 mph 1024mb 27f
12:54am 2 6 mph 1024mb 27f
12:48am 3 6 mph 1024mb 27f
12:42am 5 6 mph 1024mb 27f
12:36am 3 7 mph 1024mb 27f
12:30am 5 7 mph 1024mb 27f
12:24am 2 6 mph 1024mb 27f
12:18am 3 6 mph 1024.1mb 27f
12:12am 3 6 mph 1024mb 27f
12:06am 2 6 mph 1024mb 26f
12:00am 2 6 mph 1024mb 26f
Fri 12/19 11:54pm 3 6 mph 1024mb 26f
11:48pm 3 6 mph 1024mb 26f
11:42pm 3 6 mph 1023.9mb 26f
11:36pm 3 6 mph 1023.9mb 26f
11:30pm 3 7 mph 1023.9mb 26f
11:24pm 3 6 mph 1023.8mb 26f
11:18pm 1 3 mph 1023.8mb 27f
11:12pm  -  2 mph 1023.9mb 26f
11:06pm 1 3 mph 1023.9mb 26f
11:00pm  -  1 mph 1023.9mb 26f
10:54pm  -  2 mph 1023.9mb 26f
10:48pm 1 3 mph 1023.9mb 27f
10:42pm 1 3 mph 1023.9mb 28f
10:36pm  -  2 mph 1023.9mb 26f
10:30pm  -  mph 1023.8mb 26f
10:24pm  -  1 mph 1023.8mb 26f
10:18pm  -  1 mph 1023.7mb 26f
10:12pm  -  1 mph 1023.7mb 26f
10:06pm  -  1 mph 1023.7mb 26f
10:00pm  -  1 mph 1023.7mb 26f
9:54pm  -  2 mph 1023.7mb 27f
9:48pm  -  2 mph 1023.7mb 28f
9:42pm  -  1 mph 1023.8mb 28f
9:36pm  -  2 mph 1023.8mb 28f
9:30pm  -  3 mph 1023.8mb 27f
9:24pm  -  3 mph 1023.9mb 28f
9:18pm  -  2 mph 1024mb 29f
9:12pm  -  5 mph 1024mb 28f
9:06pm  -  2 mph 1024mb 28f
9:00pm  -  mph 1024.1mb 28f
8:54pm  -  3 mph 1024.2mb 29f
8:48pm  -  mph 1024.2mb 29f
8:42pm  -  2 mph 1024.3mb 28f
8:36pm  -  2 mph 1024.3mb 28f
8:30pm  -  1 mph 1024.4mb 28f
8:24pm  -  2 mph 1024.5mb 28f
8:18pm  -  1 mph 1024.6mb 28f
8:12pm  -  3 mph 1024.7mb 28f
8:00pm  -  3 mph 1024.8mb 28f
7:54pm  -  3 mph 1024.9mb 28f
7:48pm  -  2 mph 1024.9mb 27f
7:42pm  -  1 mph 1025mb 28f
7:36pm  -  2 mph 1025mb 28f
7:30pm  -  3 mph 1025.1mb 28f
7:24pm  -  2 mph 1025.2mb 28f
7:18pm 1 3 mph 1025.2mb 28f
7:12pm 1 3 mph 1025.3mb 28f
7:06pm  -  3 mph 1025.4mb 28f
7:00pm  -  3 mph 1025.3mb 28f
6:54pm  -  1 mph 1025.3mb 28f
6:48pm  -  1 mph 1025.4mb 28f
6:42pm  -  1 mph 1025.4mb 28f
6:36pm  -  2 mph 1025.5mb 28f
6:30pm  -  2 mph 1025.4mb 28f
6:24pm 1 3 mph 1025.4mb 28f
6:18pm 1 3 mph 1025.4mb 28f
6:12pm  -  3 mph 1025.4mb 28f
6:06pm  -  2 mph 1025.4mb 28f
6:00pm  -  1 mph 1025.3mb 28f
5:54pm  -  1 mph 1025.3mb 28f
5:48pm  -  1 mph 1025.3mb 28f
5:42pm  -  1 mph 1025.2mb 28f
5:36pm  -  1 mph 1025.2mb 28f
5:30pm  -  2 mph 1025.2mb 28f
5:24pm  -  2 mph 1025.1mb 28f
5:18pm  -  2 mph 1025.1mb 28f
5:12pm  -  3 mph 1024.9mb 28f
5:06pm 1 5 mph 1024.8mb 28f
5:00pm 1 3 mph 1024.8mb 29f
4:54pm 1 3 mph 1024.7mb 29f
4:48pm 1 5 mph 1024.7mb 29f
4:42pm 2 5 mph 1024.6mb 29f
4:36pm 2 5 mph 1024.5mb 29f
4:30pm  -  1 mph 1024.4mb 29f
4:24pm  -  2 mph 1024.4mb 29f
4:12pm 1 3 mph 1024.4mb 29f
4:06pm 1 5 mph 1024.3mb 29f
4:00pm 2 6 mph 1024.3mb 29f
3:54pm 2 5 mph 1024.2mb 29f
3:48pm 2 6 mph 1024.3mb 29f
3:42pm 2 5 mph 1024.2mb 29f
3:36pm 2 6 mph 1024.2mb 29f
3:30pm 3 6 mph 1024.2mb 29f
3:24pm 3 6 mph 1024.1mb 29f
3:18pm 2 6 mph 1024.2mb 29f
3:12pm 2 6 mph 1024.1mb 29f
3:06pm 3 6 mph 1024.1mb 30f
3:00pm 3 7 mph 1024.1mb 30f
2:54pm 3 8 mph 1024mb 30f
2:48pm 6 7 mph 1024mb 31f
2:42pm  -  2 mph 1024mb 30f
2:36pm 1 5 mph 1024mb 30f
2:30pm 3 7 mph 1023.9mb 31f
2:24pm  -  6 mph 1023.9mb 31f
2:18pm  -  2 mph 1024mb 30f
2:12pm 2 6 mph 1024mb 30f
2:06pm 1 6 mph 1024mb 31f
2:00pm  -  1 mph 1024mb 32f
1:54pm  -  1 mph 1024mb 33f
1:48pm  -  2 mph 1024mb 31f
1:42pm  -  3 mph 1024mb 31f
1:36pm 1 3 mph 1024.1mb 30f
1:30pm  -  3 mph 1024.1mb 30f
1:24pm  -  3 mph 1024.2mb 30f
1:18pm 1 5 mph 1024.3mb 31f
1:12pm  -  3 mph 1024.2mb 32f
1:06pm  -  3 mph 1024.3mb 31f
1:00pm 1 6 mph 1024.3mb 31f
12:54pm 1 5 mph 1024.4mb 30f
12:48pm  -  3 mph 1024.4mb 31f
12:42pm  -  2 mph 1024.4mb 31f
12:36pm  -  2 mph 1024.4mb 31f
12:30pm  -  2 mph 1024.5mb 31f
12:24pm 1 5 mph 1024.4mb 31f
12:18pm  -  3 mph 1024.4mb 32f
12:12pm  -  2 mph 1024.4mb 30f
12:06pm  -  3 mph 1024.5mb 30f
12:00pm  -  5 mph 1024.5mb 29f
11:54am 2 6 mph 1024.4mb 30f
11:48am 1 5 mph 1024.5mb 29f
11:42am 3 6 mph 1024.5mb 31f
11:36am  -  3 mph 1024.5mb 30f
11:24am 1 6 mph 1024.6mb 30f
11:18am 1 5 mph 1024.7mb 29f
11:12am 1 8 mph 1024.7mb 30f
11:06am 2 6 mph 1024.8mb 29f
11:00am 5 7 mph 1024.9mb 29f
10:54am 2 8 mph 1025mb 29f
10:48am 3 8 mph 1025mb 29f
10:42am 5 7 mph 1025.1mb 29f
10:36am 2 5 mph 1025.2mb 29f
10:30am 2 6 mph 1025.3mb 29f
10:24am 2 6 mph 1025.3mb 29f
10:18am 2 6 mph 1025.4mb 29f
10:12am 1 3 mph 1025.4mb 28f
10:06am 1 5 mph 1025.5mb 28f
10:00am 3 6 mph 1025.6mb 27f
9:54am 5 7 mph 1025.5mb 27f
9:48am 3 7 mph 1025.6mb 27f
9:42am  -  3 mph 1025.7mb 26f
9:36am  -  2 mph 1025.7mb 25f
9:30am  -  3 mph 1025.7mb 25f
9:24am 1 5 mph 1025.7mb 25f
9:18am 1 3 mph 1025.7mb 25f
9:12am 1 3 mph 1025.6mb 24f
9:06am 2 3 mph 1025.5mb 24f
9:00am 1 5 mph 1025.5mb 23f
8:54am 1 3 mph 1025.5mb 23f
8:48am 2 5 mph 1025.4mb 22f
8:42am 1 6 mph 1025.4mb 22f
8:36am 2 5 mph 1025.3mb 22f
8:30am 2 6 mph 1025.2mb 21f
8:24am 3 6 mph 1025.2mb 21f
8:18am 3 6 mph 1025.2mb 21f
8:12am 2 6 mph 1025.1mb 20f
8:06am 2 5 mph 1025.1mb 20f
8:00am 2 5 mph 1025.1mb 20f
7:54am 2 6 mph 1025mb 20f
7:48am 2 6 mph 1025mb 20f
7:42am 1 6 mph 1024.9mb 20f
7:36am 2 5 mph 1024.9mb 20f
7:30am 2 5 mph 1024.9mb 20f
7:24am 2 5 mph 1024.8mb 20f
7:18am  -  3 mph 1024.8mb 20f
7:12am 2 5 mph 1024.8mb 20f
7:06am 2 5 mph 1024.8mb 20f
7:00am 2 5 mph 1024.8mb 20f
6:54am 2 6 mph 1024.9mb 20f
6:48am 3 6 mph 1024.8mb 20f
6:42am 3 6 mph 1024.8mb 20f
6:36am 3 6 mph 1024.8mb 20f
6:30am 5 6 mph 1024.7mb 20f
6:24am 3 6 mph 1024.7mb 20f
6:18am 2 3 mph 1024.6mb 20f
6:12am 1 6 mph 1024.4mb 20f
6:06am 5 7 mph 1024.3mb 20f
6:00am 6 7 mph 1024.4mb 20f
5:54am 5 7 mph 1024.3mb 21f
5:48am 5 7 mph 1024.3mb 21f
5:42am 3 6 mph 1024.3mb 21f
5:36am 5 7 mph 1024.3mb 21f
5:30am 5 7 mph 1024.2mb 21f
5:24am 3 6 mph 1024.3mb 21f
5:18am 3 6 mph 1024.2mb 21f
5:12am 2 6 mph 1024.1mb 21f
5:06am 2 7 mph 1024mb 21f
5:00am 2 6 mph 1024.1mb 21f
4:54am 2 6 mph 1024.1mb 21f
4:48am 2 6 mph 1024mb 21f
4:42am 3 7 mph 1024mb 21f
4:36am 3 7 mph 1024mb 22f
4:30am 3 7 mph 1024mb 22f
4:24am 3 7 mph 1024mb 22f
4:18am 2 6 mph 1024mb 22f
4:12am 3 7 mph 1024mb 22f
4:06am 5 7 mph 1024mb 23f
4:00am 3 7 mph 1024mb 23f
3:54am 3 7 mph 1024mb 23f
3:48am 5 8 mph 1024mb 23f
3:42am 6 8 mph 1024mb 23f
3:36am 5 8 mph 1024mb 24f
3:30am 6 8 mph 1024mb 24f
3:24am 5 9 mph 1023.9mb 24f
3:18am 7 9 mph 1023.9mb 24f
3:12am 6 9 mph 1024mb 24f
3:06am 6 9 mph 1024mb 24f
3:00am 5 8 mph 1024mb 24f
2:54am 3 8 mph 1024mb 24f
2:48am 5 9 mph 1024mb 24f
2:42am 5 9 mph 1024.1mb 24f
2:36am 5 8 mph 1024.1mb 24f
2:30am 6 8 mph 1024mb 24f
2:24am 7 11 mph 1024.1mb 24f
2:18am 7 11 mph 1024.1mb 23f
2:12am 9 10 mph 1024.1mb 23f
2:06am 6 9 mph 1024mb 24f
2:00am 6 10 mph 1023.9mb 23f
1:54am 7 9 mph 1023.9mb 23f
1:48am 7 11 mph 1023.9mb 23f
1:42am 3 8 mph 1023.8mb 23f
1:36am 6 9 mph 1023.6mb 23f
1:30am 6 9 mph 1023.5mb 22f
1:24am 6 8 mph 1023.5mb 22f
1:18am 5 8 mph 1023.4mb 22f
1:12am 7 9 mph 1023.4mb 22f
1:06am 6 10 mph 1023.4mb 22f
1:00am 6 9 mph 1023.4mb 22f
12:54am 6 9 mph 1023.3mb 22f
12:48am 5 8 mph 1023.2mb 22f
12:42am 6 8 mph 1023.2mb 22f
12:36am 7 10 mph 1023.2mb 21f
12:30am 6 8 mph 1023.2mb 21f
12:24am 6 8 mph 1023.4mb 21f
12:18am 7 9 mph 1023.4mb 21f
12:12am 6 8 mph 1023.4mb 20f
12:06am 6 9 mph 1023.5mb 20f
12:00am 6 8 mph 1023.6mb 20f
Thu 12/18 11:54pm 6 9 mph 1023.6mb 20f
11:48pm 6 9 mph 1023.6mb 20f
11:42pm 7 9 mph 1023.7mb 20f
11:36pm 7 9 mph 1023.7mb 20f
11:30pm 6 9 mph 1023.8mb 20f
11:24pm 6 8 mph 1023.8mb 20f
11:18pm 5 8 mph 1023.8mb 19f
11:12pm 5 7 mph 1023.7mb 19f
11:06pm 3 7 mph 1023.7mb 19f
11:00pm 3 7 mph 1023.7mb 19f
10:54pm 3 7 mph 1023.7mb 18f
10:48pm 3 7 mph 1023.7mb 18f
10:42pm 5 7 mph 1023.7mb 19f
10:36pm 5 7 mph 1023.6mb 19f
10:30pm 3 6 mph 1023.5mb 19f
10:24pm 2 7 mph 1023.5mb 18f
10:18pm 6 7 mph 1023.5mb 19f
10:12pm 5 8 mph 1023.6mb 19f
10:06pm 6 8 mph 1023.6mb 19f
10:00pm 6 8 mph 1023.6mb 19f
9:54pm 6 8 mph 1023.6mb 19f
9:48pm 6 8 mph 1023.6mb 19f
9:42pm 6 8 mph 1023.6mb 19f
9:36pm 6 8 mph 1023.6mb 19f
9:30pm 6 8 mph 1023.7mb 19f
9:24pm 6 7 mph 1023.6mb 19f
9:18pm 6 7 mph 1023.6mb 19f
9:12pm 6 7 mph 1023.7mb 19f
9:06pm 5 7 mph 1023.6mb 19f
9:00pm 5 7 mph 1023.7mb 19f
8:54pm 5 8 mph 1023.7mb 19f
8:48pm 5 7 mph 1023.7mb 19f
8:42pm 6 8 mph 1023.7mb 19f
8:36pm 6 8 mph 1023.7mb 19f
8:30pm 6 7 mph 1023.7mb 19f
8:24pm 5 6 mph 1023.6mb 18f
8:18pm 3 7 mph 1023.6mb 19f
8:12pm 5 7 mph 1023.5mb 19f
8:06pm 5 7 mph 1023.5mb 19f
8:00pm 6 7 mph 1023.5mb 19f
7:54pm 5 7 mph 1023.5mb 19f
7:48pm 5 7 mph 1023.6mb 19f
7:30pm 5 7 mph 1023.6mb 19f
7:24pm 3 6 mph 1023.6mb 20f
7:18pm 5 6 mph 1023.6mb 20f
7:12pm 3 6 mph 1023.6mb 21f
7:06pm 3 6 mph 1023.6mb 21f
7:00pm 3 6 mph 1023.6mb 21f
6:54pm 3 6 mph 1023.6mb 21f
6:48pm 5 6 mph 1023.6mb 20f
6:42pm 5 6 mph 1023.6mb 20f
6:36pm 3 6 mph 1023.7mb 20f
6:30pm 1 5 mph 1023.7mb 20f
6:24pm 2 3 mph 1023.6mb 22f
6:18pm 1 3 mph 1023.5mb 23f
6:12pm 1 3 mph 1023.5mb 23f
6:06pm 1 3 mph 1023.5mb 22f
6:00pm 1 3 mph 1023.5mb 22f
5:54pm 2 5 mph 1023.5mb 23f
5:48pm 2 5 mph 1023.5mb 22f
5:42pm 2 5 mph 1023.5mb 23f
5:36pm 2 5 mph 1023.4mb 23f
5:30pm 2 6 mph 1023.4mb 23f
5:24pm 3 6 mph 1023.3mb 23f
5:18pm 3 6 mph 1023.2mb 23f
5:12pm 3 6 mph 1023.1mb 22f
5:06pm 3 6 mph 1023.1mb 23f
5:00pm 2 5 mph 1023.2mb 24f
4:54pm 1 5 mph 1023.2mb 25f
4:48pm 2 7 mph 1023.2mb 25f
4:42pm 5 7 mph 1023.1mb 25f
4:36pm 3 7 mph 1023.2mb 26f
4:30pm 2 6 mph 1023.2mb 26f
4:24pm 1 3 mph 1023.2mb 26f
4:18pm 1 3 mph 1023.1mb 26f
4:12pm 2 6 mph 1023.1mb 26f
4:06pm 3 6 mph 1023.1mb 26f
4:00pm 3 6 mph 1023mb 26f
3:54pm 2 6 mph 1022.9mb 27f
3:48pm 3 7 mph 1022.9mb 27f
3:42pm 3 8 mph 1022.9mb 27f
3:36pm 5 8 mph 1022.9mb 27f
3:30pm 5 8 mph 1022.9mb 27f
3:24pm 5 8 mph 1022.9mb 27f
3:18pm 6 8 mph 1022.8mb 28f
3:12pm 5 8 mph 1022.8mb 28f
3:06pm 2 7 mph 1022.9mb 28f
3:00pm 5 9 mph 1022.9mb 28f
2:54pm 3 9 mph 1022.8mb 28f
2:48pm 3 11 mph 1022.8mb 28f
2:42pm 8 11 mph 1022.8mb 28f
2:36pm 7 9 mph 1022.8mb 28f
2:30pm 3 11 mph 1022.7mb 28f
2:24pm 9 11 mph 1022.7mb 28f
2:18pm 6 10 mph 1022.7mb 28f
2:12pm 6 9 mph 1022.7mb 28f
2:06pm 7 9 mph 1022.6mb 28f
2:00pm 9 11 mph 1022.6mb 28f
1:54pm 7 10 mph 1022.7mb 28f
1:42pm 7 13 mph 1022.7mb 28f
1:36pm 9 13 mph 1022.7mb 28f
1:30pm 7 10 mph 1022.7mb 28f
1:24pm 7 13 mph 1022.7mb 28f
1:18pm 7 10 mph 1022.7mb 28f
1:12pm 7 11 mph 1022.7mb 28f
1:06pm 9 13 mph 1022.7mb 28f
1:00pm 8 11 mph 1022.8mb 28f
12:54pm 11 14 mph 1022.8mb 28f
12:48pm 7 11 mph 1022.8mb 28f
12:42pm 9 13 mph 1022.9mb 28f
12:36pm 8 13 mph 1022.9mb 28f
12:30pm 7 11 mph 1023mb 28f
12:24pm 7 11 mph 1023.1mb 27f
12:18pm 9 11 mph 1023.1mb 27f
12:06pm 6 11 mph 1023.2mb 27f
12:00pm 8 13 mph 1023.3mb 27f
11:54am 9 14 mph 1023.3mb 27f
11:48am 9 11 mph 1023.4mb 27f
11:42am 7 11 mph 1023.5mb 27f
11:36am 7 11 mph 1023.6mb 27f
11:30am 8 11 mph 1023.6mb 27f
11:24am 6 14 mph 1023.6mb 27f
11:18am 9 13 mph 1023.7mb 27f
11:12am 7 10 mph 1023.8mb 27f
11:06am 6 11 mph 1023.9mb 27f
11:00am 7 9 mph 1024mb 27f
10:54am 6 9 mph 1024.1mb 27f
10:48am 9 11 mph 1024.2mb 27f
10:42am 8 13 mph 1024.2mb 27f
10:36am 6 14 mph 1024.2mb 27f
10:30am 6 11 mph 1024.2mb 27f
10:24am 8 13 mph 1024.2mb 27f
10:18am 8 13 mph 1024.3mb 27f
10:12am 8 11 mph 1024.3mb 27f
10:06am 8 11 mph 1024.3mb 27f
10:00am 3 8 mph 1024.3mb 27f
9:54am 6 10 mph 1024.3mb 27f
9:48am 5 9 mph 1024.3mb 27f
9:42am 6 9 mph 1024.4mb 27f
9:36am 5 9 mph 1024.3mb 27f
9:30am 7 10 mph 1024.2mb 27f
9:24am 7 10 mph 1024.2mb 27f
9:18am 8 10 mph 1024.1mb 27f
9:12am 7 14 mph 1024mb 27f
9:06am 11 18 mph 1023.9mb 27f
9:00am 10 17 mph 1023.8mb 28f
8:54am 9 14 mph 1023.7mb 28f
8:48am 7 10 mph 1023.7mb 28f
8:42am 3 8 mph 1023.6mb 28f
8:36am 7 10 mph 1023.5mb 27f
8:30am 6 10 mph 1023.5mb 27f
8:24am 8 11 mph 1023.5mb 27f
8:18am 6 10 mph 1023.5mb 27f
8:12am 3 13 mph 1023.5mb 27f
8:06am 8 13 mph 1023.5mb 27f
7:54am 8 14 mph 1023.5mb 27f
7:48am 6 13 mph 1023.6mb 27f
7:42am 7 13 mph 1023.6mb 27f
7:30am 8 11 mph 1023.5mb 27f
7:24am 7 13 mph 1023.5mb 27f
7:18am 3 9 mph 1023.5mb 27f
7:12am 6 10 mph 1023.5mb 27f
7:06am 6 14 mph 1023.5mb 27f
7:00am 6 11 mph 1023.5mb 27f
6:54am 9 14 mph 1023.5mb 27f
6:48am 7 11 mph 1023.4mb 27f
6:42am 6 10 mph 1023.4mb 27f
6:36am 7 10 mph 1023.4mb 27f
6:30am 8 13 mph 1023.4mb 28f
6:24am 8 13 mph 1023.5mb 28f
6:18am 6 10 mph 1023.5mb 28f
6:12am 6 9 mph 1023.5mb 28f
6:06am 5 10 mph 1023.4mb 28f
6:00am 6 9 mph 1023.4mb 28f
5:54am 8 13 mph 1023.4mb 28f
5:48am 8 11 mph 1023.4mb 28f
5:42am 7 10 mph 1023.5mb 28f
5:36am 3 8 mph 1023.6mb 28f
5:30am 5 9 mph 1023.5mb 28f
5:24am 6 10 mph 1023.5mb 28f
5:18am 6 10 mph 1023.4mb 28f
5:12am 6 13 mph 1023.3mb 28f
5:06am 8 13 mph 1023.3mb 28f
5:00am 7 13 mph 1023.1mb 28f
4:54am 7 14 mph 1023mb 28f
4:48am 9 13 mph 1022.9mb 28f
4:42am 7 11 mph 1022.8mb 28f
4:36am 10 13 mph 1022.8mb 28f
4:30am 6 9 mph 1022.9mb 28f
4:24am 6 9 mph 1022.9mb 28f
4:18am 6 9 mph 1022.8mb 28f
4:12am 6 10 mph 1022.8mb 28f
4:06am 6 10 mph 1022.8mb 28f
4:00am 7 11 mph 1022.9mb 28f
3:54am 8 13 mph 1022.8mb 28f
3:48am 8 11 mph 1022.9mb 28f
3:42am 6 13 mph 1023mb 28f
3:36am 8 13 mph 1023mb 28f
3:30am 7 11 mph 1023.1mb 28f
3:24am 8 10 mph 1023.3mb 28f
3:18am 6 9 mph 1023.2mb 28f
3:12am 7 11 mph 1023.3mb 28f
3:06am 7 10 mph 1023.3mb 28f
3:00am 7 13 mph 1023.4mb 28f
2:54am 6 10 mph 1023.4mb 28f
2:48am 8 11 mph 1023.5mb 28f
2:42am 5 11 mph 1023.4mb 28f
2:36am 7 11 mph 1023.5mb 28f
2:30am 7 10 mph 1023.6mb 28f
2:24am 5 9 mph 1023.7mb 28f
2:18am 5 9 mph 1023.7mb 28f
2:12am 5 9 mph 1023.7mb 28f
2:06am 6 8 mph 1023.8mb 28f
2:00am 6 8 mph 1023.8mb 28f
1:54am 6 8 mph 1023.7mb 28f
1:48am 5 8 mph 1023.5mb 28f
1:42am 5 9 mph 1023.5mb 28f
1:36am 6 8 mph 1023.5mb 28f
1:30am 3 8 mph 1023.4mb 28f
1:24am 6 10 mph 1023.3mb 28f
1:18am 6 10 mph 1023.2mb 28f
1:12am 7 9 mph 1023.1mb 28f
1:06am 6 9 mph 1023.1mb 28f
1:00am 5 9 mph 1023.2mb 28f
12:54am 3 8 mph 1023.1mb 28f
12:48am 5 9 mph 1023mb 28f
12:42am 6 11 mph 1022.9mb 28f
12:36am 5 10 mph 1022.9mb 28f
12:30am 6 8 mph 1022.9mb 28f
12:24am 3 8 mph 1022.9mb 28f
12:18am 5 9 mph 1023mb 28f
12:12am 7 13 mph 1023mb 27f
12:06am 3 8 mph 1023mb 27f
12:00am 6 9 mph 1022.9mb 27f
Wed 12/17 11:54pm 6 9 mph 1022.8mb 27f
11:48pm 6 11 mph 1022.8mb 27f
11:42pm 5 11 mph 1022.8mb 27f
11:36pm 6 9 mph 1022.6mb 27f
11:30pm 6 10 mph 1022.5mb 27f
11:24pm 5 10 mph 1022.5mb 27f
11:18pm 6 10 mph 1022.4mb 27f
11:12pm 5 10 mph 1022.4mb 27f
11:06pm 6 10 mph 1022.3mb 27f
11:00pm 6 10 mph 1022.3mb 27f
10:54pm 6 10 mph 1022.3mb 27f
10:48pm 3 11 mph 1022.1mb 27f
10:42pm 7 13 mph 1022mb 27f
10:36pm 8 13 mph 1022mb 28f
10:30pm 8 14 mph 1022mb 28f
10:24pm 9 14 mph 1021.9mb 28f
10:18pm 8 14 mph 1021.9mb 28f
10:12pm 7 11 mph 1022mb 28f
10:06pm 6 10 mph 1021.9mb 28f
10:00pm 7 11 mph 1021.9mb 28f
9:54pm 7 11 mph 1021.9mb 28f
9:48pm 8 13 mph 1021.9mb 27f
9:42pm 6 9 mph 1021.8mb 27f
9:36pm 7 11 mph 1021.7mb 27f
9:30pm 6 11 mph 1021.7mb 27f
9:24pm 7 14 mph 1021.7mb 27f
9:18pm 7 11 mph 1021.6mb 27f
9:12pm 6 10 mph 1021.6mb 27f
9:06pm 7 11 mph 1021.5mb 27f
9:00pm 6 13 mph 1021.4mb 27f
8:54pm 7 13 mph 1021.4mb 27f
8:48pm 9 14 mph 1021.5mb 27f
8:42pm 6 15 mph 1021.6mb 27f
8:36pm 6 11 mph 1021.7mb 27f
8:30pm 8 13 mph 1021.7mb 27f
8:24pm 6 11 mph 1021.8mb 27f
8:18pm 8 11 mph 1021.7mb 27f
8:12pm 8 10 mph 1021.7mb 27f
8:06pm 9 13 mph 1021.6mb 27f
8:00pm 9 13 mph 1021.7mb 27f
7:54pm 8 11 mph 1021.7mb 27f
7:48pm 7 13 mph 1021.7mb 27f
7:42pm 7 13 mph 1021.6mb 27f
7:36pm 8 14 mph 1021.6mb 27f
7:30pm 10 13 mph 1021.6mb 27f
7:24pm 8 13 mph 1021.6mb 27f
7:18pm 9 14 mph 1021.6mb 27f
7:12pm 8 13 mph 1021.6mb 26f